W8LMG Weather Reports


time (UTC)temp
C
wind
direction
speed
KPH
gust
KPH
rain 1hr
cm
rain 24hr
cm
rain mn
cm
humidity
%
barometer
mb
20260505052840 7 207 0.0 0.0 0.00 0.00 0.00 99 1013.8
20260505052337 7 207 0.0 0.0 0.00 0.00 0.00 99 1014.0
20260505051834 7 207 0.0 0.0 0.00 0.00 0.00 99 1013.8
20260505051331 7 207 0.0 0.0 0.00 0.00 0.00 99 1013.9
20260505050829 7 207 0.0 0.0 0.00 0.00 0.00 99 1013.8
20260505050328 7 207 0.0 0.0 0.00 0.00 0.00 99 1013.7
20260505041757 8 207 0.0 0.0 0.00 0.00 0.00 99 1013.8
20260505041255 8 207 0.0 0.0 0.00 0.00 0.00 99 1013.8
20260505040752 8 207 0.0 0.0 0.00 0.00 0.00 99 1013.9
20260505040249 8 207 0.0 0.0 0.00 0.00 0.00 99 1013.8
20260505035746 7 207 0.0 0.0 0.00 0.00 0.00 99 1013.5
20260505035242 7 207 0.0 0.0 0.00 0.00 0.00 99 1013.6
20260505034739 8 207 0.0 0.0 0.00 0.00 0.00 99 1013.6
20260505034236 8 207 0.0 0.0 0.00 0.00 0.00 99 1013.9
20260505033733 8 207 0.0 0.0 0.00 0.00 0.00 99 1013.7
20260505033230 8 207 0.0 0.0 0.00 0.00 0.00 99 1013.7
20260505032728 8 207 0.0 0.0 0.00 0.00 0.00 99 1013.8
20260505032224 8 207 0.0 0.0 0.00 0.00 0.00 99 1013.5
20260505031722 8 207 0.0 0.0 0.00 0.00 0.00 99 1013.5
20260505031218 8 207 0.0 0.0 0.00 0.00 0.00 99 1013.6
20260505030715 8 207 0.0 0.0 0.00 0.00 0.00 99 1013.5
20260505030211 8 207 0.0 0.0 0.00 0.00 0.00 99 1013.4
20260505025707 8 207 0.0 0.0 0.00 0.00 0.00 99 1013.4
20260505025205 9 207 0.0 0.0 0.00 0.00 0.00 99 1013.6
20260505024703 8 207 0.0 0.0 0.00 0.00 0.00 99 1013.7
20260505024200 8 207 0.0 0.0 0.00 0.00 0.00 99 1013.8
20260505023657 9 207 0.0 0.0 0.00 0.00 0.00 99 1013.8
20260505023154 9 207 0.0 0.0 0.00 0.00 0.00 99 1013.5
20260505022652 10 207 0.0 0.0 0.00 0.00 0.00 99 1013.6
20260505022149 10 207 0.0 0.0 0.00 0.00 0.00 99 1013.6
20260505021645 10 207 0.0 0.0 0.00 0.00 0.00 98 1013.6
20260505021142 10 207 0.0 0.0 0.00 0.00 0.00 98 1013.6
20260505020637 10 207 0.0 0.0 0.00 0.00 0.00 98 1013.5
20260505020134 10 207 0.0 0.0 0.00 0.00 0.00 98 1013.7
20260505015631 10 207 0.0 0.0 0.00 0.00 0.00 98 1013.5
20260505015128 10 207 1.6 3.2 0.00 0.00 0.00 98 1013.6
20260505014624 10 207 0.0 0.0 0.00 0.00 0.00 98 1013.5
20260505014121 10 207 0.0 0.0 0.00 0.00 0.00 97 1013.5
20260505013619 10 207 0.0 0.0 0.00 0.00 0.00 98 1013.4
20260505013116 10 207 0.0 0.0 0.00 0.00 0.00 97 1013.4
20260505012614 10 207 0.0 0.0 0.00 0.00 0.00 97 1013.4
20260505012111 11 207 0.0 0.0 0.00 0.00 0.00 96 1013.5
20260505011606 11 207 0.0 0.0 0.00 0.00 0.00 96 1013.3
20260505011104 11 207 0.0 0.0 0.00 0.00 0.00 95 1013.3
20260505010605 11 207 0.0 0.0 0.00 0.00 0.00 95 1013.2
20260505005557 11 207 0.0 0.0 0.00 0.00 0.00 93 1013.3
20260505005055 11 207 0.0 0.0 0.00 0.00 0.00 93 1013.2
20260505004552 11 207 0.0 0.0 0.00 0.00 0.00 92 1013.3
20260505004049 12 207 0.0 0.0 0.00 0.00 0.00 92 1013.2
20260505003546 12 207 0.0 0.0 0.00 0.00 0.00 90 1013.0
20260505003044 12 207 0.0 0.0 0.00 0.00 0.00 89 1013.1
20260505002544 12 207 0.0 0.0 0.00 0.00 0.00 89 1012.9
20260505002043 12 207 0.0 0.0 0.00 0.00 0.00 88 1013.0
20260505001540 13 207 0.0 0.0 0.00 0.00 0.00 86 1012.9
20260505001037 13 207 0.0 0.0 0.00 0.00 0.00 85 1012.8
20260505000535 13 207 0.0 0.0 0.00 0.00 0.00 84 1012.8
20260505000032 13 207 0.0 0.0 0.00 0.00 0.00 84 1012.8
20260504235529 14 207 0.0 0.0 0.00 0.00 0.00 82 1012.7
20260504235025 14 207 0.0 0.0 0.00 0.00 0.00 80 1012.7
20260504234522 15 207 0.0 0.0 0.00 0.00 0.00 80 1012.6
20260504234019 15 207 0.0 0.0 0.00 0.00 0.00 79 1012.6
20260504233514 15 207 1.6 1.6 0.00 0.00 0.00 75 1012.6
20260504233012 15 207 0.0 0.0 0.00 0.00 0.00 75 1012.7
20260504232509 15 207 3.2 3.2 0.00 0.00 0.00 73 1012.6
20260504232006 15 207 3.2 3.2 0.00 0.00 0.00 75 1012.5
20260504231502 15 207 3.2 3.2 0.00 0.00 0.00 75 1012.6
20260504230959 15 207 0.0 1.6 0.00 0.00 0.00 76 1012.7
20260504230455 15 207 1.6 1.6 0.00 0.00 0.00 74 1012.6
20260504225954 15 207 1.6 1.6 0.00 0.00 0.00 74 1012.6
20260504225451 16 207 3.2 4.8 0.00 0.00 0.00 75 1012.8
20260504224948 16 207 3.2 3.2 0.00 0.00 0.00 73 1012.8
20260504224444 16 207 4.8 4.8 0.00 0.00 0.00 71 1012.8
20260504223941 17 207 3.2 3.2 0.00 0.00 0.00 71 1013.0
20260504223437 16 207 1.6 1.6 0.00 0.00 0.00 72 1012.8
20260504222933 16 207 1.6 1.6 0.00 0.00 0.00 73 1012.9
20260504222431 17 207 4.8 4.8 0.00 0.00 0.00 72 1012.8
20260504221929 17 207 3.2 3.2 0.00 0.00 0.00 70 1013.0
20260504221425 17 207 4.8 4.8 0.00 0.00 0.00 69 1013.1
20260504220922 17 207 3.2 4.8 0.00 0.00 0.00 70 1013.1
20260504220419 16 207 3.2 4.8 0.00 0.00 0.00 68 1013.2
20260504215916 16 207 3.2 3.2 0.00 0.00 0.00 68 1013.1
20260504215413 16 207 1.6 1.6 0.00 0.00 0.00 72 1013.2
20260504214909 15 207 3.2 3.2 0.00 0.00 0.00 72 1013.3
20260504214406 15 207 1.6 3.2 0.00 0.00 0.00 74 1013.3
20260504213903 15 207 0.0 0.0 0.00 0.00 0.00 73 1013.4
20260504213358 16 207 0.0 0.0 0.00 0.00 0.00 70 1013.3
20260504212856 15 207 0.0 1.6 0.00 0.00 0.00 72 1013.2
20260504212351 15 207 0.0 0.0 0.00 0.00 0.00 72 1013.0
20260504211849 15 207 0.0 1.6 0.00 0.00 0.00 74 1013.1
20260504211345 15 207 0.0 0.0 0.00 0.00 0.00 73 1013.1
20260504210843 15 207 1.6 1.6 0.00 0.00 0.00 74 1013.0
20260504210340 15 207 1.6 1.6 0.00 0.00 0.00 71 1012.9
20260504205837 16 207 9.7 11.3 0.00 0.00 0.00 67 1013.5
20260504205335 18 207 1.6 1.6 0.00 0.00 0.00 60 1013.7
20260504204833 20 207 6.4 9.7 0.00 0.00 0.00 46 1013.2
20260504204331 20 207 4.8 6.4 0.00 0.00 0.00 43 1012.5
20260504203830 20 207 1.6 3.2 0.00 0.00 0.00 43 1012.4
20260504203327 20 207 0.0 1.6 0.00 0.00 0.00 43 1012.1
20260504202822 21 207 3.2 4.8 0.00 0.00 0.00 42 1012.2
20260504202320 21 207 3.2 3.2 0.00 0.00 0.00 42 1012.2
20260504201816 22 207 6.4 9.7 0.00 0.00 0.00 41 1012.1
20260504201314 22 208 0.0 0.0 0.00 0.00 0.00 39 1011.9
20260504200811 23 207 3.2 3.2 0.00 0.00 0.00 41 1012.2
20260504200307 22 208 1.6 3.2 0.00 0.00 0.00 42 1012.0
20260504195803 21 207 3.2 4.8 0.00 0.00 0.00 40 1012.1
20260504195259 21 207 4.8 9.7 0.00 0.00 0.00 42 1012.2
20260504194756 20 207 6.4 6.4 0.00 0.00 0.00 41 1012.2
20260504194253 20 207 1.6 3.2 0.00 0.00 0.00 43 1012.2
20260504193749 20 207 6.4 9.7 0.00 0.00 0.00 43 1012.4
20260504193247 21 207 4.8 4.8 0.00 0.00 0.00 42 1012.3
20260504192745 21 207 0.0 0.0 0.00 0.00 0.00 43 1012.2
20260504192243 22 207 4.8 4.8 0.00 0.00 0.00 41 1012.3
20260504191741 22 208 3.2 4.8 0.00 0.00 0.00 42 1012.5
20260504191238 21 207 6.4 9.7 0.00 0.00 0.00 42 1012.4
20260504190733 21 208 4.8 6.4 0.00 0.00 0.00 45 1012.3
20260504190230 20 207 6.4 6.4 0.00 0.00 0.00 43 1012.6
20260504185726 21 207 3.2 4.8 0.00 0.00 0.00 44 1012.5
20260504185223 21 207 3.2 4.8 0.00 0.00 0.00 43 1012.8
20260504184719 20 208 0.0 0.0 0.00 0.00 0.00 46 1012.7
20260504184215 21 208 1.6 3.2 0.00 0.00 0.00 45 1012.7
20260504183711 20 207 3.2 3.2 0.00 0.00 0.00 44 1012.9
20260504183208 19 207 4.8 6.4 0.00 0.00 0.00 46 1013.2
20260504182706 19 207 4.8 4.8 0.00 0.00 0.00 46 1013.4
20260504182203 20 207 6.4 9.7 0.00 0.00 0.00 47 1013.4
20260504181701 20 207 0.0 0.0 0.00 0.00 0.00 47 1013.3
20260504181158 20 207 11.3 12.9 0.00 0.00 0.00 44 1013.4
20260504180657 20 207 1.6 3.2 0.00 0.00 0.00 49 1013.3
20260504180155 19 207 4.8 4.8 0.00 0.00 0.00 49 1013.6
20260504175652 18 207 3.2 3.2 0.00 0.00 0.00 49 1013.6
20260504175149 19 207 3.2 3.2 0.00 0.00 0.00 49 1013.7
20260504174647 20 207 3.2 3.2 0.00 0.00 0.00 44 1013.7
20260504174143 19 207 4.8 6.4 0.00 0.00 0.00 46 1013.8
20260504173641 20 208 0.0 1.6 0.00 0.00 0.00 45 1013.8
20260504173138 19 207 1.6 3.2 0.00 0.00 0.00 47 1014.1
20260504172635 19 207 1.6 3.2 0.00 0.00 0.00 48 1014.2
20260504172131 18 207 1.6 1.6 0.00 0.00 0.00 52 1014.4
20260504171627 18 207 0.0 1.6 0.00 0.00 0.00 48 1014.3
20260504171125 18 207 6.4 6.4 0.00 0.00 0.00 50 1014.4
20260504170621 17 207 3.2 4.8 0.00 0.00 0.00 48 1014.5
20260504170119 17 207 3.2 6.4 0.00 0.00 0.00 51 1014.5
20260504151004 13 207 9.7 12.9 0.00 0.00 0.00 51 1015.9
20260504150501 14 207 6.4 6.4 0.00 0.00 0.00 50 1015.9
20260504140927 13 207 6.4 6.4 0.00 0.00 0.00 54 1016.1
20260504140424 13 207 1.6 3.2 0.00 0.00 0.00 58 1016.0
20260504130349 8 207 1.6 1.6 0.00 0.00 0.00 85 1016.0
20260504120312 3 206 0.0 0.0 0.00 0.00 0.00 99 1016.1
20260504110235 3 206 0.0 0.0 0.00 0.00 0.00 99 1016.2
20260504100159 3 207 0.0 0.0 0.00 0.00 0.00 99 1016.1
20260504090122 5 207 0.0 0.0 0.00 0.00 0.00 98 1016.1
20260504081558 5 206 0.0 0.0 0.00 0.00 0.00 96 1016.1
20260504081054 5 206 0.0 0.0 0.00 0.00 0.00 96 1016.2
20260504080551 5 206 0.0 0.0 0.00 0.00 0.00 96 1016.1